Portada
METAR-TAF:

METAR-TAF

Aeropuertos :

Aeropuerto de Rieti

Rieti, Italia

latitud: 42-25N, longitud: 012-51E, altitud: 389 m

Observación

El informe se hizo hace 52 minutos, a las 12:50 UTC
Viento 2 kt con dirección variable
Temperatura 13°C
Humedad 47%
Presión 1016 hPa
Visibilidad 10 km o más
sin nubes por debajo de 1500 m y sin presencia de cumulonimbus.

METAR: LIQN 051250Z VRB02KT CAVOK 13/02 Q1016

Hora: 14:42 (13:42 UTC)


TAF: falta

Observaciones y pronósticos meteorológicos de más de 4000 aeropuertos (mensajes METAR y TAF).

Los puntos amarillos y rojos representan las estaciones disponibles.

Ponga el ratón en el punto deseado para ver el nombre de la estación.

Haga clic para ver las observaciones y los pronósticos meteorológicos.

Para cambiar el mapa : haga clic en los botones verdes con una cruz de color negro para hacer un zoom, en el botón verde con un guión para alejar o en las flechas verdes para mapas adyacentes.


METAR-TAF: